Flag for Canada Weather past 2 weeks in Saanich, British Columbia, Canada

Now
59 °F

Mostly cloudy.


Feels Like: 59 °F
Forecast: 55 / 60 °F
Wind: 2 mph from Northwest

Location: Victoria Int. Airportb. C.

Current Time: Sep 1, 2015 at 9:40:17 AM

Latest Report: Sep 1, 2015 at 9:00 AM


Visibility: 30 mi

Pressure: 29.82 "Hg

Humidity: 88%

Dew point: 55 °F

Location of SaanichLocation

Historic Weather in Saanich — Graph

°F

Saanich temperature yesterday

Maximum temperature yesterday: 66 °F (at 5:00 PM)
Minimum temperature yesterday: 55 °F (at 9:00 AM)
Average temperature yesterday: 60 °F

Past Weeks' High & Low Weather Summary

 TemperatureHumidityPressure
High82 °F (Aug 18, 4:00 PM)100% (Aug 28, 6:00 AM)30.15 "Hg (Aug 28, 6:00 AM)
Low50 °F (Aug 24, 6:00 AM)33% (Aug 24, 8:00 PM)29.40 "Hg (Aug 29, 11:00 AM)
Average63 °F70%29.93 "Hg
* Reported Aug 17 8:00 AM — Sep 1 8:00 AM, Saanich, Weather by CustomWeather, © 2015

Note: Actual official high and low records may vary slightly from our data, if they occured in-between our weather recording intervals... More about our weather records

Advertising

Saanich weather history for previous 24 hours

 ConditionsComfort  
Time TempWeatherWind HumidityBarometerVisibility
8:00 AM
Tue, Sep 1
59 °FPartly sunny.2 mph77%29.82 "Hg20 mi
7:00 AM55 °FPassing clouds.No wind94%29.82 "Hg15 mi
6:00 AM54 °FPassing clouds.No wind100%29.83 "Hg15 mi
5:00 AM55 °FFog.6 mph94%29.83 "Hg1 mi
4:00 AM55 °FFog.2 mph100%29.83 "Hg1 mi
3:00 AM55 °FFog.9 mph100%29.82 "Hg3 mi
2:00 AM57 °FRain. Fog.3 mph100%29.83 "Hg1 mi
1:00 AM57 °FLight rain. Fog.6 mph100%29.82 "Hg2 mi
12:00 AM59 °FLight rain. Mostly cloudy.7 mph94%29.81 "Hg8 mi
11:00 PM
Mon, Aug 31
57 °FLight rain. Mostly cloudy.16 mph94%29.80 "Hg8 mi
10:00 PM59 °FLight rain. Fog.15 mph88%29.82 "Hg5 mi
9:00 PM63 °FLight rain. Mostly cloudy.16 mph73%29.80 "Hg20 mi
8:00 PM64 °FPartly sunny.17 mph68%29.80 "Hg20 mi
7:00 PM64 °FLight rain. Broken clouds.21 mph68%29.80 "Hg20 mi
6:00 PM66 °FPartly sunny.18 mph64%29.83 "Hg20 mi
5:00 PM66 °FPartly sunny.15 mph64%29.84 "Hg20 mi
4:00 PM64 °FLight rain. Partly sunny.18 mph68%29.83 "Hg20 mi
3:00 PM64 °FLight rain. Overcast.15 mph73%29.85 "Hg20 mi
2:00 PM61 °FLight rain. More clouds than sun.13 mph83%29.85 "Hg20 mi
1:00 PM59 °FOvercast.14 mph88%29.85 "Hg20 mi
12:00 PM59 °FOvercast.10 mph88%29.85 "Hg15 mi
11:00 AM57 °FLight rain. Low clouds.12 mph88%29.88 "Hg15 mi
10:00 AM57 °FPartly sunny.15 mph88%29.87 "Hg15 mi
9:00 AM55 °FPartly sunny.15 mph94%29.86 "Hg12 mi
Weather by CustomWeather, © 2015

See weather overviewHow to use our weather pages